Hourly Data Report for September 27, 2016

TORONTO CITY
ONTARIO

43°40'00.000" N
79°24'00.000" W
112.50 m
6158355
71508
XTO

Download Data

Hourly Data (September 2016)
Hourly Data Report for September 27, 2016
TIME
LST
Temp Definition
°C
Dew Point Definition
°C
Rel Hum Definition
%
Precip. Amount Definition
mm

Wind Dir Definition
10's deg

Wind Spd Definition
km/h
Visibility Definition
km
Stn Press Definition
kPa
Hmdx Definition


Wind Chill Definition


Weather Definition


00:00 14.4 7.5 63 0.0 LegendMM LegendMM   99.70     LegendNANA
01:00 13.6 7.3 66 0.0 LegendMM LegendMM   99.67     LegendNANA
02:00 13.5 6.6 63 0.0 LegendMM LegendMM   99.66     LegendNANA
03:00 13.0 6.4 64 0.0 LegendMM LegendMM   99.64     LegendNANA
04:00 11.9 6.4 69 0.0 LegendMM LegendMM   99.61     LegendNANA
05:00 11.9 7.1 73 0.0 LegendMM LegendMM   99.57     LegendNANA
06:00 11.2 6.5 73 0.0 LegendMM LegendMM   99.57     LegendNANA
07:00 13.2 5.2 59 0.0 LegendMM LegendMM   99.55     LegendNANA
08:00 14.7 6.4 57 0.0 LegendMM LegendMM   99.52     LegendNANA
09:00 16.8 5.7 48 0.0 LegendMM LegendMM   99.51     LegendNANA
10:00 18.0 8.1 52 0.0 LegendMM LegendMM   99.52     LegendNANA
11:00 19.0 7.8 48 0.0 LegendMM LegendMM   99.47     LegendNANA
12:00 19.6 9.9 53 0.0 LegendMM LegendMM   99.43     LegendNANA
13:00 20.3 9.4 49 0.0 LegendMM LegendMM   99.38     LegendNANA
14:00 19.8 9.4 51 0.0 LegendMM LegendMM   99.40     LegendNANA
15:00 20.9 7.9 43 0.0 LegendMM LegendMM   99.37     LegendNANA
16:00 20.6 4.6 35 0.0 LegendMM LegendMM   99.39     LegendNANA
17:00 20.4 2.8 31 0.0 LegendMM LegendMM   99.44     LegendNANA
18:00 19.7 2.6 32 0.0 LegendMM LegendMM   99.51     LegendNANA
19:00 18.9 5.5 41 0.0 LegendMM LegendMM   99.58     LegendNANA
20:00 18.2 9.0 55 0.0 LegendMM LegendMM   99.63     LegendNANA
21:00 17.6 8.7 56 0.0 LegendMM LegendMM   99.65     LegendNANA
22:00 17.1 8.8 58 0.0 LegendMM LegendMM   99.74     LegendNANA
23:00 16.9 9.4 61 0.0 LegendMM LegendMM   99.77     LegendNANA

Notes on Data Quality.

Legend

  • E = Estimated
  • M = Missing
  • NA = Not Available*
  • [empty] = Indicates an unobserved value
Date modified: